Hourly Data Report for September 11, 2017

All times are specified in Local Standard Time (LST). Add 1 hour to adjust for Daylight Saving Time where and when it is observed.

EDMUNDSTON
NEW BRUNSWICK

47°25'00.000" N
68°19'28.040" W
154.20 m
8101303
71590
ERM

Download Data

Hourly Data (September 2017)
Hourly Data Report for September 11, 2017
Temp Definition
°C
Dew Point Temp Definition
°C
Rel Hum Definition
%
Wind Dir Definition
10's deg

Wind Spd Definition
km/h
Visibility Definition
km
Stn Press Definition
kPa
Hmdx Definition


Wind Chill Definition


Weather Definition


TIME
00:00 8.4 7.4 94 29 2   100.38     LegendNANA
01:00 8.2 7.4 95 28 4   100.37     LegendNANA
02:00 7.0 6.2 94 31 4   100.33     LegendNANA
03:00 5.8 5.0 95 26 3   100.32     LegendNANA
04:00 5.1 4.4 95   0   100.32     LegendNANA
05:00 4.3 3.6 95   0   100.32     LegendNANA
06:00 3.5 2.8 95 35 4   100.38     LegendNANA
07:00 4.8 4.2 96 33 3   100.39     LegendNANA
08:00 8.7 8.1 96   0   100.40     LegendNANA
09:00 13.4 9.9 80 19 4   100.39     LegendNANA
10:00 16.0 10.5 70 27 6   100.37     LegendNANA
11:00 18.3 11.0 63 28 10   100.28     LegendNANA
12:00 19.9 11.6 59 26 9   100.22     LegendNANA
13:00 22.3 12.1 52 31 9   100.17 25   LegendNANA
14:00 22.7 11.1 48 31 11   100.08 25   LegendNANA
15:00 23.2 10.9 46 30 9   100.01 25   LegendNANA
16:00 23.4 10.5 44 34 13   99.93 25   LegendNANA
17:00 22.9 9.4 42 30 7   99.91     LegendNANA
18:00 20.5 12.3 59 32 5   99.86     LegendNANA
19:00 14.1 10.7 80 33 8   99.85     LegendNANA
20:00 11.1 9.5 90 29 4   99.86     LegendNANA
21:00 9.5 8.4 93 29 3   99.82     LegendNANA
22:00 7.6 6.6 93 36 1   99.82     LegendNANA
23:00 6.7 5.9 95 33 2   99.80     LegendNANA

Notes on Data Quality.

Legend

  • E = Estimated
  • M = Missing
  • NA = Not Available
  • ‡ = Partner data that is not subject to review by the National Climate Archives
Date modified: